Location: Passau
(48.5830°N, 13.4830°E)
Time: 09:19:10
(UTC+01:00)

NOAA 19 - Pass Details

Date: 30 November 2021
Orbit: 841 x 860 km, 99.2° (Epoch: 26 January)

Event Time Altitude Azimuth Distance (km) Brightness Sun altitude
Rises 17:00:59 0° 115° (ESE) 3,391 7.9 -7.7°
Reaches altitude 10° 17:03:59 10° 98° (E) 2,461 7.1 -8.2°
Maximum altitude 17:07:40 19° 55° (NE) 1,909 6.4 -8.8°
Drops below altitude 10° 17:11:24 10° 12° (NNE) 2,476 7.3 -9.3°
Sets 17:14:24 0° 355° (N) 3,419 8.2 -9.8°
